Showing default

ES'HAIL 2, 43700

Orbit data source: Space-Track

ES'HAIL 2, 43700 is a payload satellite owned by Es'hailsat (QA) in GEO that was launched on Thu, 15 Nov 2018 UTC via an FALCON 9 launch vehicle from the Air Force Eastern Test Range (AFETR). Payload-class satellites include a variety of spacecraft equipped with specific instruments for various scientific and technological missions. These include communications satellites like Starlink; space stations such as the ISS; scientific satellites like the Hubble; Earth observation satellites from companies like Planet Labs, Umbra, and HawkEye 360; GPS; miniature CubeSats for education and research; and military/defense satellites.

Not visible in the next 10 days
Identifier
43700, 2018-090A
Orbit
GEO
Country
Flag of QAQA / QAT
Related business
Manufacturer
MELCO
Mission
Operational Commercial Communications
Bus & Motor
DS-2000, R-4D-11
Mass
~5,300 kg wet, ~2,000 kg dry
Launch date (UTC)
2018-11-15 (7 years ago)
Launch vehicle
FALCON 9
Launch site
Air Force Eastern Test Range (AFETR)
Object type
Payload
Rocket body
Debris
Shape & HBR
Box + 2 Pan, 12.7 m
Radar Cross Section
52.659 m²

Expand to show TLE details & history
Last TLE update: 11 hours ago

TLE from 11 hours ago
0 ES'HAIL 2
1 43700U 18090A   25355.48373124  .00000167  00000-0  00000-0 0  9998
2 43700   0.0177  58.9241 0001008 234.8291 356.4948  1.00272672 25898
Epoch: 2025-12-21T11:36Z
TLE epoch observation values (Epoch: 2025-12-21T11:36:34.379Z)
Latitude
-0.03128°
Longitude
25.80008°
Altitude
35,781.583 km
Speed
3.075 km/s
True Right ascension
19h 20m 57s
True Declination
0° 01' 52"
Sunlit
Object was in daylight at epoch
Visualization orbit readout
Latitude
Unknown
Longitude
Unknown
Altitude
Unknown
Speed
Unknown
Apparent Right ascension
Unknown
Apparent Declination
Unknown
Sunlit
N/A
Visualization observer readout
Local Sidereal Time
21:27:08
Azimuth
Unknown
Elevation
Unknown
Doppler factor
Unknown
Orbital elements
Apogee altitude
35,791.667 km
Perigee altitude
35,783.166 km
Semi-major axis
42,165.554 km
Eccentricity
0.0001
Inclination
0.0177°
RAAN
58.9241°
Arg. of periapsis
234.8291°
True anomaly
356.49409°
Mean anomaly
356.4948°
Eccentric anomaly
356.49445°
Mean motion
0.25067 °/min
Orbital period
1,436.14 mins
BSTAR
0
Loading maneuver chart data...
Computing Atmospheric mass density...
Loading historical data...
Loading historical data...
Loading historical data...
Loading historical data...
Loading historical data...
Loading historical data...
Loading historical data...
Other satellites on launch #90 in the year 2018 (2018-11-15 UTC)

Documentation

Showing up to 5 results
|